ATLAS 5 CENTAUR DEB, 44666

Orbit data source: Space-Track

ATLAS 5 CENTAUR DEB, 44666 is space debris in HEO originally from a launch on Wed, 17 Oct 2018 UTC launched from the Air Force Eastern Test Range (AFETR). Debris objects in space refer to the collection of defunct objects orbiting the Earth. Examples of debris include non-operational satellites, rocket bodies, and fragments generated from explosions, collisions, or faulty payload assembly.

Loading next visibility...
Identifier
44666, 2018-079AC
Orbit
HEO
Last TLE update
1 day ago
Origin
Manufacturer
ULA Decatur
Mission
Spacecraft
Bus & Motor
Unknown
Mass
Unknown
Launch date (UTC)
2018-10-17 (7 years ago)
Launch vehicle
Unknown
Launch site
Air Force Eastern Test Range (AFETR)
Object type
Payload
Rocket body
Debris
Shape & HBR
Unknown
Radar Cross Section
RCS unknown

Expand to show TLE details & history

TLE from 1 day ago
0 ATLAS 5 CENTAUR DEB
1 44666U 18079AC  25127.91606199 -.00000064  00000-0  00000-0 0  9990
2 44666  12.6044  67.1178 4458857 263.0983  45.9509  1.90672304 41297
Epoch: 2025-05-07T21:59Z
Definitive object data (Epoch: 2025-05-07T21:59:07.755Z)
Latitude
0.00001°
Longitude
-128.73818°
Altitude
16,869.843 km
Speed
4.448 km/s
True Right ascension
04h 28m 09s
True Declination
0° 00' 00"
Sunlit
Object was in daylight at TLE epoch
Visualization TLE readout
Latitude
11.19752°
Longitude
-11.09177°
Altitude
28,599.248 km
Speed
2.878 km/s
Apparent Right ascension
11h 58m 28s
Apparent Declination
5° 06' 44"
Sunlit
Object is in daylight
Visualization observer readout
Local Sidereal Time
14:31:19
Azimuth
234.849° WSW
Elevation
41.104°
Doppler factor
1
Orbital elements
Apogee altitude
33,345.025 km
Perigee altitude
8,845.177 km
Semi-major axis
27,473.238 km
Eccentricity
0.4458857
Inclination
12.6044°
RAAN
67.1178°
Arg. of periapsis
263.0983°
True anomaly
96.98672°
Mean anomaly
45.9509°
Eccentric anomaly
69.94993°
Mean motion
0.47663 °/min
BSTAR
Unknown
Orbital period
755.31 mins
Loading maneuver chart data...
Loading SW <> Apogee altitude chart data...

ATLAS 5 CENTAUR DEB Visibility forecast

Observer location: undefined°, undefined°

Span
Click to sort rows by Start time (UTC) header in descending order
Start Az.
Max El. time (UTC)
Max El. Az.
Max El.
End time (UTC)
End Az.
202 mins2025-05-09 06:22:29.587Z234.827° WSW2025-05-09 06:22:29.587Z234.827° WSW33.315°2025-05-09 09:44:29.587Z145.073° SSE
351 mins2025-05-10 00:31:29.587Z248.824° W2025-05-10 03:43:29.587Z247.538° W28.687°2025-05-10 06:22:29.587Z253.257° W
|